WM1X Weather Reports


time (UTC)temp
C
wind
direction
speed
KPH
gust
KPH
rain 1hr
cm
rain 24hr
cm
rain mn
cm
humidity
%
barometer
mb
20260504184503 18 304 19.3 40.2 0.00 0.00 0.00 34 1007.6
20260504183504 18 286 11.3 40.2 0.00 0.00 0.00 33 1007.8
20260504182504 18 298 16.1 33.8 0.00 0.00 0.00 32 1007.9
20260504181503 18 291 9.7 40.2 0.00 0.00 0.00 34 1007.9
20260504180503 17 297 19.3 40.2 0.00 0.00 0.00 33 1008.1
20260504175504 18 292 20.9 33.8 0.00 0.00 0.00 33 1008.0
20260504174504 17 293 19.3 45.1 0.00 0.00 0.00 33 1008.1
20260504173503 17 288 16.1 37.0 0.00 0.00 0.00 33 1008.0
20260504172505 17 304 11.3 40.2 0.00 0.00 0.00 32 1008.1
20260504171503 17 280 14.5 45.1 0.00 0.00 0.00 33 1008.1
20260504170504 17 353 25.7 45.1 0.00 0.00 0.00 33 1008.2
20260504150503 15 310 22.5 37.0 0.00 0.00 0.00 41 1009.3
20260504140504 13 293 19.3 37.0 0.00 0.00 0.00 45 1009.9
20260504130503 11 274 14.5 27.4 0.00 0.00 0.00 52 1010.2
20260504110503 8 284 9.7 16.1 0.00 0.00 0.00 59 1010.7
20260504081504 7 291 16.1 24.1 0.00 0.00 0.00 60 1010.5
20260504080504 6 285 14.5 24.1 0.00 0.00 0.00 60 1010.5
20260504050503 5 282 9.7 16.1 0.00 0.05 0.00 58 1010.5
20260504044504 5 282 11.3 19.3 0.00 0.05 0.00 59 1010.7
20260504043504 4 282 4.8 11.3 0.00 0.05 0.00 64 1010.7
20260504042504 3 282 4.8 12.9 0.00 0.05 0.00 67 1010.7
20260504041504 2 283 4.8 11.3 0.00 0.05 0.00 77 1010.6
20260504040503 2 261 0.0 11.3 0.00 0.05 0.00 80 1010.5
20260504035504 1 277 3.2 9.7 0.00 0.05 0.05 82 1010.5
20260504032503 1 277 3.2 4.8 0.00 0.05 0.05 84 1010.4
20260504031504 1 278 3.2 4.8 0.00 0.05 0.05 82 1010.4
20260504030504 1 281 0.0 0.0 0.00 0.05 0.05 81 1010.3
20260504025504 1 281 0.0 0.0 0.00 0.05 0.05 82 1010.3
20260504024504 1 281 0.0 0.0 0.00 0.05 0.05 81 1010.3
20260504023504 1 281 0.0 0.0 0.00 0.05 0.05 82 1010.3
20260504022504 2 281 0.0 0.0 0.00 0.05 0.05 81 1010.3
20260504021504 2 281 0.0 0.0 0.00 0.10 0.05 78 1010.3
20260504020503 2 281 0.0 0.0 0.00 0.10 0.05 78 1010.2
20260504015503 2 281 0.0 0.0 0.00 0.13 0.05 76 1010.2
20260504014504 3 281 0.0 0.0 0.00 0.13 0.05 74 1010.2
20260504013504 3 281 0.0 0.0 0.00 0.20 0.05 71 1010.0
20260504012504 4 281 1.6 4.8 0.00 0.23 0.05 69 1010.0
20260504011504 5 244 0.0 0.0 0.00 0.23 0.05 64 1009.9
20260504010503 5 244 0.0 0.0 0.00 0.23 0.05 63 1009.7
20260504004504 6 258 0.0 0.0 0.00 0.25 0.05 57 1009.3
20260504003504 6 258 0.0 0.0 0.00 0.25 0.05 56 1009.3
20260504002504 7 258 0.0 0.0 0.00 0.25 0.05 53 1009.1
20260504001504 7 258 0.0 16.1 0.00 0.25 0.05 52 1009.0
20260504000503 7 265 0.0 14.5 0.00 0.25 0.05 51 1008.9
20260503235503 8 282 0.0 11.3 0.00 0.25 0.05 51 1008.8
20260503234504 8 265 4.8 14.5 0.00 0.25 0.05 48 1008.8
20260503232504 8 269 9.7 29.0 0.00 0.25 0.05 46 1008.6
20260503231504 8 278 8.0 20.9 0.00 0.25 0.05 46 1008.5
20260503230504 8 284 1.6 14.5 0.00 0.25 0.05 47 1008.4
20260503225504 8 274 1.6 14.5 0.00 0.25 0.05 48 1008.4
20260503223505 8 271 3.2 22.5 0.00 0.38 0.05 47 1008.4
20260503221503 8 266 11.3 19.3 0.00 0.38 0.05 47 1008.2
20260503220504 8 271 11.3 29.0 0.00 0.38 0.05 47 1008.1
20260503215504 8 264 14.5 29.0 0.00 0.38 0.05 46 1008.1
20260503213504 8 275 19.3 35.4 0.00 0.38 0.05 44 1008.1
20260503212504 8 247 20.9 35.4 0.00 0.38 0.05 43 1007.9
20260503211503 8 251 14.5 32.2 0.00 0.38 0.05 44 1007.7
20260503210504 8 271 14.5 32.2 0.00 0.38 0.05 45 1007.6
20260503205504 8 262 8.0 37.0 0.00 0.38 0.05 45 1007.6
20260503204504 8 261 12.9 27.4 0.00 0.38 0.05 44 1007.5
20260503203504 8 249 16.1 32.2 0.00 0.43 0.05 45 1007.5
20260503202504 8 263 9.7 37.0 0.00 0.46 0.05 46 1007.4
20260503201504 8 260 20.9 38.6 0.00 0.46 0.05 45 1007.4
20260503200503 8 245 19.3 37.0 0.00 0.46 0.05 45 1007.3
20260503193503 8 245 17.7 35.4 0.00 0.61 0.05 46 1007.2
20260503192503 9 260 16.1 29.0 0.00 0.61 0.05 44 1007.1
20260503191504 8 244 12.9 45.1 0.00 0.61 0.05 43 1007.3
20260503190504 8 308 20.9 37.0 0.00 0.61 0.05 44 1007.2
20260503185504 8 280 19.3 33.8 0.00 0.61 0.05 46 1007.1